Location: Unspecified
(35.7250°N, 0.0000°E)
Time: 21:03:17
(UTC+00:00)

Explorer 7 - Pass Details

Date: 21 June 2019
Orbit: 485 x 680 km, 50.3° (Epoch: 21 October)

Event Time Altitude Azimuth Distance (km) Brightness Sun altitude
Rises 11:56:02 0° 304° (NW) 2,889 10.4 77.7°
Reaches altitude 10° 11:59:30 10° 331° (NNW) 2,027 9.7 77.7°
Maximum altitude 12:01:47 13° 1° (N) 1,833 9.5 77.7°
Drops below altitude 10° 12:04:08 10° 30° (NNE) 2,074 9.8 77.7°
Sets 12:07:45 0° 57° (ENE) 3,014 10.5 77.6°
